{"data":{"norad_id":64919,"intl_designator":"2025-157R","name":"STARLINK-34599","alt_names":[],"object_type":"PAYLOAD","status":"ACTIVE","operator":null,"country":"US","launch_date":"2025-07-26","launch_site_code":"AFETR","launch_vehicle":null,"mission":null,"orbit_class":"UNKNOWN","rcs_meters":null,"size_class":null,"mass_kg":null,"dimensions":null,"purposes":["comms"],"wikipedia_slug":null,"has_3d_model":false,"image_url":null,"decayed_at":null,"tle_current":{"epoch":"2026-05-24T23:17:05.442432Z","epoch_age_seconds":70913,"freshness":"FRESH","line1":"1 64919U 25157R   26144.97020188  .00009204  00000+0  32248-3 0  9997","line2":"2 64919  53.1613 351.2702 0001209  93.2093 266.9046 15.30201669 47803","mean_motion":15.30201669,"eccentricity":0.0001209,"inclination_deg":53.1613,"raan_deg":351.2702,"arg_perigee_deg":93.2093,"mean_anomaly_deg":266.9046,"bstar":0.00032248,"rev_number":4780,"period_min":94.105243065187,"perigee_km":474.38151642798,"apogee_km":476.0386557534,"semimajor_km":6853.3470860907,"source":"CELESTRAK","updated_at":"2026-05-25T13:38:20.623571Z"}}}